Wind_Speed
33 34 37 30 28 27 23 20 19 17 15 14 14 16 16 16 15 16 16 15 16 16 17 18 19 19 20 21 20 19 19 19
34 34 26 32 34 32 27 26 25 23 21 20 20 20 20 19 19 20 20 19 19 19 20 21 21 23 24 23 22 21 22 22
33 36 31 34 33 31 33 33 30 28 26 25 24 24 24 23 24 25 26 25 24 23 23 24 24 25 26 25 24 23 23 24
37 37 34 38 39 36 33 34 34 33 30 28 27 27 27 26 26 27 26 25 25 25 25 26 27 27 26 25 23 23 24 25
44 43 39 37 40 39 40 38 37 35 32 34 31 33 30 31 29 30 28 27 27 27 27 27 28 27 27 26 25 26 26 28
39 38 39 40 40 41 38 41 41 40 36 38 37 38 34 30 32 32 33 31 30 29 29 28 29 29 28 27 26 25 26 28
40 42 41 42 43 42 41 40 43 41 38 39 39 39 36 32 32 32 33 32 32 31 30 30 29 28 28 27 25 26 29 30
45 42 40 42 43 46 44 41 41 43 41 42 39 39 39 37 37 36 36 34 33 30 31 30 29 27 26 26 26 30 32 34
45 41 43 47 47 44 47 52 52 49 43 44 44 42 42 43 44 39 36 32 31 31 34 31 27 27 28 28 29 29 32 34
52 48 45 46 48 47 44 46 48 52 51 52 48 44 43 45 42 38 33 32 33 34 35 34 37 33 32 30 34 34 34 33
49 47 46 48 46 41 44 44 49 52 46 44 44 42 44 45 42 37 35 34 31 35 38 37 37 36 36 35 36 37 34 34
45 44 42 38 41 44 42 42 41 41 44 43 45 42 41 41 37 37 38 34 35 35 36 33 34 34 37 38 35 32 33 34
47 46 47 41 44 43 39 43 44 45 46 38 36 40 43 37 39 40 40 40 41 37 37 38 39 41 39 35 30 31 32 33
47 49 50 47 44 43 40 45 43 41 42 44 40 37 38 38 40 43 43 45 42 40 40 38 39 39 35 33 33 34 32 34
46 46 47 51 53 50 46 52 47 39 45 50 48 42 39 40 41 45 46 45 42 44 42 40 37 35 33 33 33 33 34 35
40 45 48 46 45 49 56 59 58 56 53 48 40 41 42 47 49 47 45 44 44 46 44 41 40 36 34 33 33 34 36 36
45 43 44 45 46 45 47 53 58 63 66 60 58 50 51 54 56 59 52 49 50 51 50 46 42 36 35 35 34 36 37 37
47 45 43 46 47 46 48 50 52 53 54 62 66 62 61 61 49 53 57 53 51 49 47 46 42 36 34 35 35 36 36 37
51 49 47 42 45 47 46 49 47 49 49 52 58 55 63 61 57 61 61 59 49 47 45 41 37 37 38 37 36 37 37 38
Wind_Direction
218 220 236 225 226 233 230 228 232 237 242 244 249 257 263 270 275 279 283 286 289 293 294 297 299 300 301 304 305 300 298 302
236 215 235 227 226 234 235 233 229 235 239 249 256 264 269 272 273 278 281 285 286 289 292 293 295 298 300 303 302 298 295 297
221 238 251 222 228 234 238 235 235 240 244 250 255 261 264 265 269 273 277 280 284 288 291 291 292 292 293 296 298 300 298 298
221 227 224 228 232 242 241 245 244 238 243 249 253 257 260 266 270 273 276 279 282 285 288 289 290 290 292 295 297 298 302 301
231 234 235 235 240 241 242 242 244 246 244 246 249 251 255 258 268 276 279 281 283 284 285 287 289 290 290 291 292 295 298 300
241 246 237 232 238 239 238 243 246 241 238 241 245 250 253 253 264 269 276 281 282 283 284 285 286 288 288 289 291 293 296 297
231 232 236 234 237 239 241 242 244 244 244 245 246 250 254 255 260 268 276 277 281 282 282 282 282 284 285 287 291 296 301 295
234 234 237 237 237 237 238 240 245 248 243 245 249 252 253 256 260 262 269 273 276 279 280 280 281 283 284 287 287 297 297 292
243 228 229 231 232 233 237 237 241 246 244 241 243 245 249 255 259 263 266 268 271 279 285 278 276 283 283 284 292 296 294 290
244 243 232 233 232 231 235 236 236 236 239 239 241 247 250 252 255 257 263 264 273 279 284 277 277 280 279 279 291 293 291 289
241 237 235 234 234 235 237 241 235 231 235 239 241 245 251 253 251 253 254 264 270 277 277 279 280 275 276 284 285 286 283 283
240 238 238 244 238 238 233 230 230 232 235 239 240 235 241 246 247 247 255 259 267 273 278 277 276 274 275 278 283 278 278 280
246 247 245 248 253 253 252 235 231 231 232 233 237 237 243 244 244 246 252 258 264 270 272 273 273 275 276 281 277 275 278 278
247 247 247 243 240 246 250 249 225 228 235 236 237 236 241 242 246 250 251 254 256 263 267 274 275 274 272 271 271 274 273 274
248 248 248 246 246 241 240 245 238 240 243 246 243 242 242 248 249 250 251 255 257 262 263 270 276 271 266 267 270 271 272 272
246 248 250 250 249 246 241 238 244 247 238 239 240 249 257 262 263 257 256 258 260 257 258 266 270 266 268 267 270 271 272 272
249 247 248 248 247 244 249 249 249 242 252 254 257 258 259 260 262 254 253 254 256 258 260 264 265 264 264 265 268 271 271 273
241 244 246 248 249 247 241 244 251 256 254 253 255 258 258 258 254 256 255 257 258 262 265 261 259 262 268 269 270 271 272 273
245 241 244 243 245 249 251 248 240 246 249 252 249 252 250 259 265 262 261 250 251 256 255 256 259 261 266 269 271 273 273 273
Height
5815 5817 5820 5824 5828 5830 5833 5835 5837 5840 5841 5843 5845 5848 5850 5852 5852 5853 5854 5854 5854 5854 5853 5852 5852 5850 5850 5849 5849 5847 5846 5845
5806 5808 5812 5818 5821 5824 5827 5831 5832 5835 5836 5838 5841 5844 5846 5847 5848 5849 5850 5850 5849 5849 5849 5848 5846 5846 5844 5844 5843 5842 5841 5839
5800 5804 5806 5810 5814 5816 5819 5824 5827 5829 5831 5832 5835 5838 5839 5841 5842 5843 5844 5844 5843 5843 5843 5842 5841 5840 5839 5838 5837 5836 5834 5832
5792 5796 5800 5803 5807 5809 5812 5815 5819 5822 5824 5826 5830 5831 5833 5834 5836 5837 5838 5838 5837 5836 5836 5836 5834 5833 5832 5831 5830 5829 5827 5826
5785 5788 5794 5796 5799 5802 5803 5807 5811 5813 5817 5820 5822 5825 5827 5828 5830 5831 5831 5831 5831 5830 5830 5829 5828 5828 5826 5825 5824 5823 5821 5820
5776 5780 5784 5785 5790 5795 5796 5797 5801 5804 5808 5812 5814 5817 5818 5820 5823 5825 5825 5825 5824 5824 5823 5823 5822 5822 5821 5819 5818 5817 5815 5814
5766 5770 5773 5777 5782 5786 5789 5791 5792 5797 5802 5805 5808 5810 5812 5813 5815 5817 5818 5818 5818 5818 5817 5816 5815 5815 5815 5814 5813 5812 5810 5807
5755 5761 5766 5770 5772 5774 5778 5782 5786 5790 5793 5797 5800 5801 5803 5804 5805 5808 5809 5810 5811 5810 5809 5809 5809 5808 5807 5807 5806 5805 5803 5802
5742 5749 5752 5756 5759 5764 5768 5771 5775 5779 5783 5785 5787 5790 5793 5794 5796 5799 5801 5802 5802 5802 5802 5802 5802 5801 5801 5800 5800 5798 5796 5794
5729 5736 5742 5746 5750 5754 5758 5761 5764 5767 5769 5772 5777 5779 5782 5783 5786 5789 5793 5793 5794 5794 5794 5794 5794 5793 5793 5793 5792 5790 5789 5786
5719 5723 5726 5733 5740 5745 5749 5750 5754 5756 5758 5762 5765 5770 5772 5773 5776 5780 5783 5784 5785 5785 5785 5784 5784 5784 5784 5783 5783 5782 5780 5779
5709 5716 5722 5726 5730 5734 5738 5740 5743 5746 5749 5751 5753 5755 5760 5763 5766 5770 5772 5774 5775 5776 5776 5776 5776 5775 5775 5774 5774 5773 5772 5770
5699 5705 5711 5718 5722 5726 5729 5730 5732 5735 5738 5741 5743 5746 5748 5753 5756 5759 5761 5763 5765 5766 5767 5767 5767 5766 5766 5766 5766 5765 5764 5763
5688 5695 5700 5705 5710 5715 5719 5721 5721 5726 5730 5733 5735 5736 5739 5742 5746 5748 5750 5751 5753 5755 5757 5756 5756 5756 5757 5757 5757 5756 5755 5754
5680 5684 5688 5693 5700 5705 5708 5710 5711 5714 5719 5723 5726 5727 5729 5732 5735 5737 5739 5742 5744 5745 5747 5747 5747 5747 5748 5748 5748 5748 5747 5746
5671 5674 5676 5680 5685 5691 5696 5699 5702 5705 5707 5711 5714 5715 5718 5723 5726 5727 5729 5731 5733 5735 5737 5738 5739 5739 5739 5740 5740 5740 5739 5738
5659 5662 5666 5669 5673 5677 5682 5686 5689 5694 5697 5700 5700 5703 5707 5710 5713 5716 5718 5720 5722 5725 5727 5728 5730 5730 5730 5730 5730 5730 5729 5729
5647 5651 5654 5658 5661 5666 5668 5673 5678 5683 5688 5691 5692 5694 5698 5701 5702 5704 5706 5709 5712 5714 5716 5718 5719 5721 5722 5723 5722 5721 5721 5721
5632 5638 5644 5647 5650 5653 5657 5661 5665 5670 5676 5679 5680 5682 5687 5690 5692 5692 5693 5694 5698 5702 5706 5707 5708 5711 5712 5713 5714 5714 5713 5713